Stations météo

réclame
Mon MeteoGroup
Malmo/Sturup, Suède (2636): Température de l'air & dewpoint: 10.01.2018 10:00:00 - 16.01.2018 10:00:00 (CET)Malmo/Sturup, Suède (2636): Vitesse du vent: 10.01.2018 10:00:00 - 16.01.2018 10:00:00 (CET)Malmo/Sturup, Suède (2636): Direction du vent: 10.01.2018 10:00:00 - 16.01.2018 10:00:00 (CET)Malmo/Sturup, Suède (2636): reduced air pressure: 10.01.2018 10:00:00 - 16.01.2018 10:00:00 (CET)Malmo/Sturup, Suède (2636): visibility: 10.01.2018 10:00:00 - 16.01.2018 10:00:00 (CET)
Date & Time tt [°C] td [°C] ff [km/h] ff [knt] dd ppp [hPa] vv [km]
16.01.2018 10:00:00 3,0 2,0 24 13 SSW - 7
16.01.2018 09:00:00 2,3 1,7 26 14 S 985,3 8
16.01.2018 08:00:00 1,9 1,8 26 14 S 985,1 4,0
16.01.2018 07:00:00 1,1 1,0 34 18 S 985,1 2,9
16.01.2018 06:00:00 0,2 0,1 37 20 SSE 985,7 0,9
16.01.2018 05:00:00 0,3 0,0 39 21 SSE 986,7 3,0
16.01.2018 04:00:00 0,4 0,1 42 23 SSE 987,7 4,5
16.01.2018 03:00:00 0,1 -0,3 41 22 SSE 989,3 1,2
16.01.2018 02:00:00 1,1 -0,1 42 23 SSE 990,9 4,0
16.01.2018 01:00:00 0,8 -0,2 42 23 SSE 992,4 4,0
16.01.2018 00:00:00 0,3 -0,4 41 22 SSE 994,6 2,5
15.01.2018 23:00:00 1,2 -1,0 37 20 SSE 996,4 10
15.01.2018 22:00:00 1,2 -1,0 39 21 SSE 997,9 8
15.01.2018 21:00:00 1,0 -0,9 39 21 SSE 999,8 6
15.01.2018 20:00:00 0,7 -1,2 41 22 SSE 1001,6 8
15.01.2018 19:00:00 1,2 -1,0 35 19 SSE 1003,1 10
15.01.2018 18:00:00 1,3 -1,4 39 21 SSE 1004,5 10
15.01.2018 17:00:00 0,9 -1,8 35 19 SSE 1006,2 10
15.01.2018 16:00:00 0,6 -1,6 34 18 SSE 1007,5 10
15.01.2018 15:00:00 0,1 -2,0 35 19 SSE 1008,6 10
15.01.2018 14:00:00 0,0 -2,1 35 19 SSE 1010,6 10
15.01.2018 13:00:00 0,0 -2,4 37 20 SSE 1012,0 10
15.01.2018 12:00:00 0,2 -2,3 37 20 SSE 1013,7 10
15.01.2018 11:00:00 -0,3 -2,8 35 19 SSE 1015,5 10
15.01.2018 10:00:00 -0,5 -3,0 39 21 SSE 1017,0 10
15.01.2018 09:00:00 -0,6 -3,5 35 19 SSE 1018,1 10
15.01.2018 08:00:00 -0,5 -3,5 37 20 SSE 1019,0 10
15.01.2018 07:00:00 -0,4 -3,3 34 18 SSE 1020,0 10
15.01.2018 06:00:00 -0,5 -2,9 29 16 SSE 1020,8 10
15.01.2018 05:00:00 -0,5 -2,9 24 13 SSE 1021,8 10
15.01.2018 04:00:00 -0,7 -3,1 24 13 SSE 1022,7 10
15.01.2018 03:00:00 -1,1 -3,5 18 10 SSE 1024,1 10
15.01.2018 02:00:00 -1,5 -4,3 22 12 S 1025,0 10
15.01.2018 01:00:00 -1,1 -4,4 18 10 SSE 1025,7 10
15.01.2018 00:00:00 -1,6 -4,9 21 11 SE 1026,4 10
14.01.2018 23:00:00 -1,8 -5,1 24 13 SSE 1027,3 10
14.01.2018 22:00:00 -2,1 -5,4 22 12 SSE 1027,8 10
14.01.2018 21:00:00 -2,1 -5,6 24 13 SSE 1028,6 10
14.01.2018 20:00:00 -2,1 -5,8 22 12 SE 1028,7 10
14.01.2018 19:00:00 -2,3 -5,6 21 11 SE 1029,1 10
14.01.2018 18:00:00 -2,1 -5,4 18 10 SSE 1029,9 10
14.01.2018 17:00:00 -2,0 -5,3 18 10 SE 1030,2 10
14.01.2018 16:00:00 -1,9 -5,2 21 11 SSE 1030,6 10
14.01.2018 15:00:00 -1,6 -4,9 18 10 SE 1031,0 10
14.01.2018 14:00:00 -1,4 -5,3 21 11 SE 1031,3 10
14.01.2018 13:00:00 -1,4 -5,3 22 12 SSE 1031,7 10
14.01.2018 12:00:00 -0,8 -5,0 18 10 SE 1031,9 10
14.01.2018 11:00:00 -0,7 -4,9 16 9 SE 1032,4 10
14.01.2018 10:00:00 -0,7 -4,8 18 10 SE 1032,7 10
14.01.2018 09:00:00 -0,7 -5,1 21 11 SE 1032,6 10
14.01.2018 08:00:00 -0,6 -5,0 15 8 SE 1032,7 10
14.01.2018 07:00:00 -0,5 -4,9 18 10 SE 1032,7 10
14.01.2018 06:00:00 -0,4 -4,6 18 10 SE 1032,8 10
14.01.2018 05:00:00 -0,4 -5,0 14 8 SE 1032,9 45
14.01.2018 04:00:00 -0,2 -4,6 13 7 SE 1033,3 10
14.01.2018 03:00:00 -0,4 -5,6 16 9 ESE 1033,5 10
14.01.2018 02:00:00 -0,5 -4,9 13 7 ESE 1033,8 10
14.01.2018 01:00:00 -0,3 -5,1 18 10 SE 1034,0 10
14.01.2018 00:00:00 -0,1 -4,9 22 12 SE 1034,4 10
13.01.2018 23:00:00 0,0 -4,8 18 10 SE 1034,6 10
13.01.2018 22:00:00 0,0 -5,0 16 9 ESE 1034,7 10
13.01.2018 21:00:00 -0,1 -4,9 15 8 ESE 1035,0 10
13.01.2018 20:00:00 -1,0 -4,5 18 10 ESE 1035,3 10
13.01.2018 19:00:00 -0,9 -4,8 21 11 ESE 1035,5 10
13.01.2018 18:00:00 -0,8 -4,7 18 10 SE 1035,7 10
13.01.2018 17:00:00 -0,5 -4,2 18 10 ESE 1035,4 10
13.01.2018 16:00:00 -0,1 -4,2 18 10 ESE 1035,2 10
13.01.2018 15:00:00 0,2 -3,9 16 9 SE 1035,5 10
13.01.2018 14:00:00 0,5 -4,0 18 10 SE 1035,5 10
13.01.2018 13:00:00 0,4 -3,5 16 9 ESE 1035,7 10
13.01.2018 12:00:00 0,1 -2,9 16 9 E 1035,8 10
13.01.2018 11:00:00 0,1 -2,9 18 10 E 1036,1 10
13.01.2018 10:00:00 0,1 -2,8 18 10 E 1036,1 10
13.01.2018 09:00:00 0,0 -2,5 21 11 E 1035,9 10
13.01.2018 08:00:00 -0,5 -2,6 21 11 E 1035,5 10
13.01.2018 07:00:00 -0,1 -1,8 21 11 E 1035,4 10
13.01.2018 06:00:00 -0,2 -1,9 18 10 E 1035,4 10
13.01.2018 05:00:00 -0,1 -1,8 14 8 SE 1035,3 16
13.01.2018 04:00:00 0,1 -1,3 16 9 ESE 1035,6 10
13.01.2018 03:00:00 0,3 -1,5 18 10 ESE 1035,7 10
13.01.2018 02:00:00 0,4 -1,4 18 10 ESE 1035,5 10
13.01.2018 01:00:00 0,6 -1,5 16 9 E 1035,4 10
13.01.2018 00:00:00 0,7 -1,9 24 13 E 1035,6 10
12.01.2018 23:00:00 0,8 -1,9 18 10 ESE 1035,5 10
12.01.2018 22:00:00 0,7 -1,9 22 12 ESE 1035,4 10
12.01.2018 21:00:00 0,8 -1,8 22 12 ESE 1035,2 10
12.01.2018 20:00:00 1,0 -1,6 28 15 E 1034,9 10
12.01.2018 19:00:00 1,3 -0,9 24 13 E 1034,5 10
12.01.2018 18:00:00 1,3 -0,6 22 12 E 1034,4 10
12.01.2018 17:00:00 1,2 -0,7 18 10 ESE 1034,3 10
12.01.2018 16:00:00 1,3 -0,6 22 12 ESE 1034,0 9
12.01.2018 15:00:00 1,3 -1,3 22 12 ESE 1034,0 10
12.01.2018 14:00:00 1,3 -1,4 24 13 E 1033,8 10
12.01.2018 13:00:00 1,5 -0,9 21 11 E 1033,5 10
12.01.2018 12:00:00 1,4 -1,2 22 12 E 1033,2 10
12.01.2018 11:00:00 1,7 -1,0 24 13 E 1033,1 10
12.01.2018 10:00:00 1,5 -1,2 28 15 E 1032,6 10
12.01.2018 09:00:00 1,5 -1,6 24 13 E 1031,7 10
12.01.2018 08:00:00 1,4 -1,3 18 10 E 1031,2 10
12.01.2018 07:00:00 1,6 -1,3 28 15 E 1030,4 10
12.01.2018 06:00:00 1,6 -1,3 24 13 E 1030,0 10
12.01.2018 05:00:00 1,7 -0,9 22 12 E 1029,6 10
12.01.2018 04:00:00 1,4 -1,0 29 16 E 1029,2 10
12.01.2018 03:00:00 1,7 -0,7 24 13 E 1028,5 9
12.01.2018 02:00:00 1,7 -0,7 26 14 E 1028,3 10
12.01.2018 01:00:00 1,8 -0,8 26 14 E 1027,7 10
12.01.2018 00:00:00 1,7 -0,9 26 14 E 1027,0 10
11.01.2018 23:00:00 1,8 -0,8 28 15 E 1026,1 10
11.01.2018 22:00:00 1,8 -0,8 29 16 E 1025,5 10
11.01.2018 21:00:00 2,1 -0,3 26 14 E 1024,8 10
11.01.2018 20:00:00 2,3 0,0 37 20 E 1024,2 10
11.01.2018 19:00:00 1,9 0,1 37 20 E 1023,4 10
11.01.2018 18:00:00 2,3 0,2 34 18 E 1022,7 10
11.01.2018 17:00:00 3,0 0,7 24 13 E 1022,1 10
11.01.2018 16:00:00 3,1 0,8 29 16 E 1021,3 10
11.01.2018 15:00:00 3,0 1,4 22 12 E 1020,7 10
11.01.2018 14:00:00 3,2 1,9 26 14 E 1020,2 10
11.01.2018 13:00:00 3,5 1,7 26 14 E 1019,9 10
11.01.2018 12:00:00 3,4 1,9 24 13 E 1019,5 9
11.01.2018 11:00:00 3,5 2,0 21 11 E 1019,4 10
11.01.2018 10:00:00 3,5 2,2 18 10 E 1019,0 8
11.01.2018 09:00:00 3,4 2,2 21 11 E 1018,5 6
11.01.2018 08:00:00 3,4 3,0 18 10 E 1017,7 4,0
11.01.2018 07:00:00 3,4 3,0 15 8 E 1017,1 5
11.01.2018 06:00:00 3,0 2,9 15 8 E 1016,7 1,5
11.01.2018 05:00:00 3,0 2,9 16 9 E 1016,6 0,4
11.01.2018 04:00:00 2,8 2,7 18 10 E 1016,7 0,3
11.01.2018 03:00:00 2,8 2,7 16 9 E 1016,4 0,4
11.01.2018 02:00:00 2,8 2,5 13 7 E 1016,3 4,8
11.01.2018 01:00:00 2,9 2,6 15 8 E 1015,8 4,8
11.01.2018 00:00:00 2,7 2,3 15 8 E 1015,8 5
10.01.2018 23:00:00 2,9 2,5 15 8 E 1015,6 4,8
10.01.2018 22:00:00 2,7 2,4 15 8 E 1015,5 3,1
10.01.2018 21:00:00 2,6 2,0 13 7 E 1015,2 4,1
10.01.2018 20:00:00 2,8 1,9 16 9 E 1015,1 7
10.01.2018 19:00:00 2,9 2,0 13 7 E 1015,1 6
10.01.2018 18:00:00 3,0 2,1 15 8 ESE 1014,9 7
10.01.2018 17:00:00 3,2 2,0 15 8 ESE 1014,7 9
10.01.2018 16:00:00 3,2 2,0 18 10 ESE 1014,6 8
10.01.2018 15:00:00 3,1 1,9 18 10 ESE 1014,4 7
10.01.2018 14:00:00 3,0 2,1 15 8 SE 1013,9 6
10.01.2018 13:00:00 2,7 2,1 18 10 ESE 1014,4 5
10.01.2018 12:00:00 2,9 2,3 16 9 ESE 1014,3 5
10.01.2018 11:00:00 2,6 2,0 22 12 ESE 1014,5 5
10.01.2018 10:00:00 2,4 1,8 21 11 ESE 1014,3 4,9

tt = Température de l'air
td = dewpoint
ff = Vitesse du vent
dd = Direction du vent
ppp = reduced air pressure
vv = visibility

stations d'obs. à proximité